Location: Mount Cross
(36.6390°N, 79.4878°W)
Time: 08:02:25
(UTC+00:00)

Vanguard 1 Rocket - Pass Details

Date: 31 March 2023
Orbit: 654 x 4221 km, 34.3° (Epoch: 01 June)

Event Time Altitude Azimuth Distance (km) Brightness Sun altitude
Rises 06:21:44 0° 276° (W) 8,143 12.1 -47.0°
Reaches altitude 10° 06:27:55 10° 276° (W) 6,765 11.6 -46.5°
Enters shadow 06:34:09 23° 274° (W) 5,269 11.0 -46.0°
Maximum altitude 06:47:50 74° 196° (SSW) 2,376 - -44.6°
Exits shadow 06:55:56 20° 115° (ESE) 3,166 10.1 -43.8°
Drops below altitude 10° 06:57:44 10° 113° (ESE) 3,640 10.5 -43.6°
Sets 07:00:02 0° 111° (ESE) 4,319 11.0 -43.3°
